Location: WWIN Observatory
(34.8953°N, 91.9583°W)
Time: 08:45:23
(UTC-05:00)

Daily predictions for brighter satellites

Satellite Brightness Start Highest point End
(mag) Time Altitude Azimuth Time Altitude Azimuth Time Altitude Azimuth
Cosmos 2333 Rocket 2.4 20:33:40 10° SSW 20:39:18 79° WNW 20:44:59 10° NNE
Meteor 2-15 Rocket 4.4 20:33:42 10° S 20:39:44 77° E 20:45:48 10° N
Resurs 01 Rocket 3.6 20:36:33 10° SSW 20:40:29 31° W 20:44:27 10° NW
ATLAS 3B CENTAUR R/B 4.0 20:39:25 10° SW 20:41:57 15° S 20:45:49 10° SSE
Okean 1-7 Rocket 4.1 20:38:12 10° SSW 20:42:34 63° W 20:46:56 10° N
Cosmos 1975 3.2 20:44:04 10° NNW 20:48:03 66° W 20:52:00 10° S
Cosmos 1725 Rocket 4.3 20:43:18 10° N 20:49:34 72° W 20:55:45 10° S
Cosmos 1242 Rocket 3.9 20:46:23 10° SSW 20:49:57 45° W 20:53:34 10° N
H-2A R/B 2.8 20:46:18 10° SSE 20:50:11 68° ENE 20:54:08 10° N
Cosmos 2098 Rocket 2.6 20:48:27 10° N 20:51:48 71° E 20:55:54 10° S
Lacrosse 5 4.3 20:48:28 10° W 20:52:41 26° NW 20:56:56 10° NNE
Cosmos 1844 3.9 20:47:49 10° NNW 20:53:36 78° WSW 20:59:22 10° SSE
Cosmos 1844 Rocket 3.4 20:49:11 10° NNW 20:54:41 54° WSW 21:00:09 10° S
ATLAS CENTAUR R/B 2.2 20:50:07 10° SW 20:54:59 71° WNW 21:00:03 10° NNE
USA 186 1.5 20:52:37 10° S 20:55:38 86° WSW 20:58:29 10° NNW
Cosmos 158 Rocket 3.9 20:50:40 10° SSW 20:55:40 86° ESE 21:00:51 10° NNE
SeaSat 1 3.8 20:53:18 10° ESE 20:57:13 24° NE 21:01:08 10° N
Cosmos 2251 Rocket 3.5 20:56:54 10° SSW 21:02:11 80° ESE 21:07:32 10° NNE
Hubble Space Telescope 2.8 20:59:58 10° WSW 21:02:31 16° SSW 21:05:04 10° SSE
FENGYUN 3A 3.7 20:58:24 10° SSE 21:03:45 84° WSW 21:09:09 10° NNW
Cosmos 1025 Rocket 3.1 20:59:30 10° S 21:03:55 89° WNW 21:08:18 10° N
Cosmos 1892 Rocket 3.6 20:59:34 10° S 21:03:55 60° E 21:08:19 10° NNE
RESURS DK-1 4.5 21:00:55 10° NW 21:04:17 24° WSW 21:07:38 10° SSW
Cosmos 2228 4.4 21:01:51 10° NNE 21:05:25 24° ENE 21:07:57 15° ESE
BREEZE-M DEB (TANK) 3.8 21:09:53 10° NNW 21:11:54 19° NNE 21:13:12 13° ENE
Atlas Centaur 2 3.5 21:05:39 10° SW 21:12:27 36° SSE 21:19:59 10° E
ALOS 2.8 21:08:45 10° S 21:13:21 59° W 21:17:58 10° NNW
OTV 4 1.4 21:11:14 10° W 21:14:00 34° SSW 21:15:32 20° SSE
COSMOS 2455 4.0 21:13:20 14° SE 21:16:28 21° ESE 21:20:46 10° ENE
Meteor 2-17 Rocket 4.4 21:10:21 10° N 21:16:31 86° E 21:22:40 10° S
Nimbus 7 Rocket 4.5 21:12:00 10° NNE 21:17:53 59° ESE 21:23:40 10° S
Cosmos 2237 Rocket 3.8 21:13:15 10° SW 21:18:29 39° WNW 21:23:44 10° N
ATLAS 3B R/B 4.4 21:18:09 14° ESE 21:18:38 14° ESE 21:22:08 10° ENE
Envisat 3.6 21:16:48 17° SE 21:20:22 41° ENE 21:25:07 10° N
ERS-1 Rocket 2.9 21:16:55 10° SSE 21:21:56 87° ENE 21:26:58 10° NNW
Cosmos 1939 Rocket 3.2 21:19:32 18° SE 21:22:23 50° ENE 21:26:25 10° N
Cosmos 1110 Rocket 4.0 21:19:29 10° NNW 21:24:47 70° ENE 21:28:41 18° SSE
Cosmos 2285 Rocket 4.2 21:18:58 10° N 21:25:10 55° ENE 21:29:39 19° SE
Cosmos 2278 Rocket 2.8 21:23:37 10° NNW 21:29:10 57° WSW 21:34:39 10° S
PSLV R/B 4.0 21:30:19 29° ESE 21:31:04 34° ENE 21:33:54 10° N
USA 234 4.0 21:27:51 15° ESE 21:32:57 43° NE 21:39:04 10° NNW
Cosmos 1726 Rocket 3.7 21:28:46 10° N 21:33:13 75° W 21:37:06 13° S
Lacrosse 5 rocket 3.6 21:35:18 10° W 21:38:35 26° NW 21:41:59 10° NNE
Cosmos 1464 Rocket 3.9 21:34:11 10° N 21:40:20 79° E 21:45:12 17° S
Cosmos 2058 Rocket 3.1 21:37:18 10° N 21:41:42 80° W 21:44:45 19° S
Cosmos 2369 Rocket 4.3 21:41:42 10° NNE 21:43:44 12° NE 21:45:44 10° ENE
SL-16 R/B 2.9 21:39:09 10° SW 21:44:40 55° WNW 21:50:13 10° NNE
OAO 3 Copernicus 4.2 21:40:50 10° W 21:45:53 89° SSW 21:48:52 25° E
Aureole 2 Rocket 2.7 21:43:06 10° SSW 21:47:13 81° WNW 21:51:00 10° NNE
Abrixas rocket 4.1 21:44:36 10° NNW 21:47:30 25° NNE 21:48:52 19° ENE
Cosmos 1602 Rocket 3.5 21:45:02 23° S 21:47:41 65° E 21:52:08 10° NNE
Cosmos 1666 2.6 21:43:57 10° N 21:47:51 72° E 21:49:18 36° SSE
Okean 2 4.1 21:43:55 10° SSW 21:48:01 56° W 21:52:09 10° N
ARGOS 4.2 21:48:12 24° ESE 21:50:07 31° ENE 21:54:48 10° N
H-2A R/B 3.9 21:50:29 13° ENE 21:51:31 13° ENE 21:53:53 10° NE
Cosmos 2034 Rocket 4.0 21:51:12 10° N 21:57:36 81° E 22:01:30 25° S
UNK 4.2 21:53:49 10° NNE 21:59:15 86° ESE 22:04:38 12° SSW
SPOT 1/Viking Rocket 4.0 21:57:45 33° ESE 21:59:30 46° ENE 22:04:25 10° N
Cosmos 1812 Rocket 3.9 21:57:19 10° N 22:01:32 45° E 22:02:13 42° ESE
Cosmos 1461 3.7 21:59:02 10° NNW 22:02:58 35° NE 22:03:39 33° ENE
PSLV R/B 3.2 22:03:53 10° WSW 22:07:26 89° NNW 22:07:54 65° ENE
H-2A R/B 3.8 22:08:27 13° SSW 22:11:30 27° W 22:15:08 10° NW
MetOp-B 4.1 22:10:02 37° SSE 22:12:17 88° ENE 22:17:40 10° NNW
Cosmos 1603 3.6 22:07:39 10° SSW 22:13:17 85° WNW 22:18:55 10° NNE
Cosmos 1515 4.1 22:13:48 46° ENE 22:13:48 46° ENE 22:17:05 10° NNE
DEBRIS 2.7 22:11:41 10° NW 22:15:01 53° NNW 22:15:01 53° NNW
CZ-4 R/B 3.8 22:12:03 10° NNE 22:17:02 70° ESE 22:18:29 45° S
Geosat 3.9 22:13:04 10° NNE 22:18:06 69° ESE 22:19:56 39° S
SPOT 5 3.3 22:17:33 32° SSW 22:19:18 51° W 22:23:34 10° NNW
Milstar 3 Cent rocket 3.3 22:14:29 10° W 22:19:31 25° SSW 22:19:51 25° SSW
Cosmos 1626 Rocket 4.4 22:18:55 20° SSW 22:21:42 49° W 22:26:00 10° N
Cosmos 1302 Rocket 4.5 22:25:03 10° NNW 22:30:08 55° WSW 22:31:50 38° SSW
SeaSat 1 3.4 22:32:58 31° SSW 22:34:30 39° WSW 22:39:07 10° NW
Landsat 7 4.2 22:35:43 49° ENE 22:35:44 49° ENE 22:40:19 10° N
APEX 4.3 22:32:44 10° NW 22:36:53 50° WSW 22:37:52 43° SSW
Cosmos 1953 Rocket 4.2 22:38:28 42° NE 22:38:28 42° NE 22:41:48 10° NNE
Cosmos 1943 3.1 22:39:29 62° SE 22:39:54 64° ESE 22:45:32 10° NNE
DELTA 2 DEB (DPAF) 4.2 22:40:32 68° ENE 22:40:32 68° ENE 22:44:51 10° N
CZ-4B R/B 4.5 22:35:47 10° N 22:40:36 45° WNW 22:44:18 17° SW
Meteor 2-12 Rocket 4.4 22:34:54 10° N 22:41:01 84° W 22:42:43 50° S
Cosmos 2346 Rocket 4.3 22:41:46 50° S 22:43:30 83° E 22:49:42 10° N
YAOGAN 6 3.8 22:47:30 38° W 22:47:30 38° W 22:50:44 10° NNW
Terra 2.3 22:52:00 47° NE 22:52:00 47° NE 22:56:07 10° N
CZ-4C R/B 3.8 22:53:47 68° NNW 22:53:47 68° NNW 22:57:30 10° NNW
Meteor 1-16 4.5 22:50:33 10° N 22:56:07 84° E 22:56:28 78° SE
Cosmos 1943 Rocket 3.9 22:56:37 10° NNE 23:00:34 19° ENE 23:01:00 19° ENE
SL-08 RB Rocket 4.1 23:01:19 59° W 23:01:19 59° W 23:05:37 10° NNW
Atlas Centaur 2 3.0 22:53:49 10° WSW 23:01:51 60° S 23:03:19 53° SE
COSMOS 2455 3.5 22:56:15 11° SW 23:01:55 52° WNW 23:07:47 10° NNE
Cosmos 407 Rocket 3.7 23:05:15 63° NE 23:05:15 63° NE 23:09:45 10° NNE
USA 81 4.4 23:03:08 10° NNW 23:08:19 58° W 23:08:46 56° WSW
ATLAS 3B R/B 2.8 23:05:15 40° SSW 23:08:23 84° ESE 23:16:01 10° NNE
Cosmos 1758 Rocket 4.4 23:13:16 49° N 23:13:16 49° N 23:16:32 10° N
USA 234 3.6 23:15:11 48° SW 23:15:49 49° SW 23:22:10 10° NW
CARTOSAT-1 4.4 23:17:46 48° NNW 23:17:46 48° NNW 23:20:56 10° NNW
Lacrosse 4 Rocket 3.4 23:26:58 23° NNE 23:26:58 23° NNE 23:28:36 10° NNE
Cosmos 2369 Rocket 2.2 23:22:50 10° NNW 23:28:01 75° NNW 23:28:01 75° NNW
H-2A R/B 2.5 23:31:07 52° WNW 23:31:07 52° WNW 23:35:18 10° NNW
USA 238 DEB 4.2 23:39:28 48° ENE 23:39:28 48° ENE 23:44:57 10° NE
USA 238 4.2 23:39:36 48° ENE 23:39:36 48° ENE 23:45:02 10° NE
Nadezhda 4 Rocket 4.1 23:42:14 67° NE 23:42:14 67° NE 23:47:56 10° N
COSMOS 2406 4.3 23:44:13 34° NE 23:44:13 34° NE 23:47:36 10° NNE
